Regional Weather Roundup
Issued by NWS

Home | Current Version | Previous Version | Graphics & Text | Print | Product List | Glossary On
Versions: 1 2 3 4 5 6 7 8 9 10 11 12 13 14 15 16 17 18 19 20 21 22 23 24 25 26 27 28 29 30 31 32 33 34 35 36 37 38 39 40 41 42 43 44 45 46 47 48 49 50
000
ASUS43 KMKX 230459
RWRWI

WISCONSIN REGIONAL WEATHER ROUNDUP
NATIONAL WEATHER SERVICE MILWAUKEE/SULLIVAN WI
1100 PM CST THU FEB 22 2018

NOTE: "FAIR" INDICATES FEW OR NO CLOUDS BELOW 12,000 FEET WITH NO
SIGNIFICANT WEATHER AND/OR OBSTRUCTIONS TO VISIBILITY.

WIZ001-002-006>008-014>016-023>028-230600-
NORTHWEST WISCONSIN

CITY           SKY/WX    TMP DP  RH WIND       PRES   REMARKS
SUPERIOR ARPT  LGT SNOW  23  22  96 NE8       30.31F WCI  14
ASHLAND        LGT SNOW  20  18  92 NE3       30.31F FOG
HAYWARD        LGT SNOW  26  23  88 E9        30.24F VSB 1   WCI  17
SIREN          LGT SNOW  25  24  93 E3        30.25F VSB 3/4
CUMBERLAND     LGT SNOW  27  23  86 E7        30.22F WCI  19
RICE LAKE      LGT SNOW  26  25  94 E9        30.24F VSB 1   WCI  17
CHETEK         LGT SNOW  26  24  94 SE8       30.24F WCI  17
LADYSMITH      LGT SNOW  27  24  90 E9        30.26F WCI  17
EAU CLAIRE     FRZ RAIN  27  24  89 E13G24    30.22F FOG     WCI  16
MENOMONIE      LGT SNOW  27  25  91 E10       30.22F WCI  17
NEW RICHMOND   LGT SNOW  26  22  86 E8        30.22F WCI  17
OSCEOLA        LGT SNOW  26  25  95 E5        30.26F WCI  21
$$

WIZ003>005-009-010-017-018-230600-
NORTH CENTRAL WISCONSIN

CITY           SKY/WX    TMP DP  RH WIND       PRES   REMARKS
MANITOWISH WTR LGT SNOW  23  23 100 E6        30.28F VSB 1   WCI  16
ARBOR VITAE    LGT SNOW  25  23  91 SE7       30.28F WCI  17
WOODRUFF       LGT SNOW  25  23  91 SE7       30.28F WCI  17
RHINELANDER    LGT SNOW  24  22  91 E10       30.28F FOG     WCI  14
EAGLE RIVER    LGT SNOW  24  23  96 E7        30.28F WCI  15
LAND O LAKES   LGT SNOW  24  22  91 SE5       30.31F VSB 3/4 WCI  18
PHILLIPS       LGT SNOW  23  23  97 E7        30.24F WCI  15
TOMAHAWK       LGT SNOW  23  21  91 E3        30.29F
MEDFORD        LGT SNOW  24  20  87 E10       30.24F WCI  13
MERRILL        LGT SNOW  25  21  86 E5        30.28F WCI  19
$$

WIZ029-030-035-036-043>047-230600-
CENTRAL WISCONSIN

CITY           SKY/WX    TMP DP  RH WIND       PRES   REMARKS
WAUSAU         FLURRIES  25  22  88 E10       30.26F WCI  15
MOSINEE        NOT AVBL
MARSHFIELD     CLOUDY    26  23  88 E13       30.24F WCI  15
STEVENS POINT  MIX PCPN  26  23  91 E10G16    30.31F WCI  15
WAUPACA        LGT RAIN  31  28  87 E6        30.33F WCI  25
WAUTOMA        FLURRIES  29  28  96 E9        30.29  WCI  20
WISC RAPIDS    FRZ RAIN  27  23  85 E15       30.28F FOG     WCI  15
CAMP DOUGLAS   FRZ DRZL  30  30 100 E9        30.25F FOG     WCI  22
$$

WIZ011>013-019>022-031-037>040-048>050-230600-
NORTHEAST WISCONSIN

CITY           SKY/WX    TMP DP  RH WIND       PRES   REMARKS
ANTIGO         FLURRIES  24  20  86 E14       30.30F WCI  12
SHAWANO        CLOUDY    30  26  83 E7        30.34F WCI  23
OCONTO         CLOUDY    30  26  84 NE7       30.37F WCI  23
STURGEON BAY   CLOUDY    33  26  75 E10       30.36F WCI  25
GREEN BAY      CLOUDY    29  25  85 NE8       30.35F WCI  21
MANITOWOC      CLOUDY    34  27  75 E13       30.34F WCI  25
APPLETON       LGT RAIN  30  28  93 E8        30.31F WCI  23
CLINTONVILLE   LGT SNOW  29  25  85 E8        30.33F WCI  21
OSHKOSH        CLOUDY    31  28  89 E7        30.31F WCI  24
$$

WIZ032>034-041-042-053>061-230600-
SOUTHWEST WISCONSIN

CITY           SKY/WX    TMP DP  RH WIND       PRES   REMARKS
LA CROSSE      CLOUDY    32  29  88 SE7       30.21F WCI  26
SPARTA         MIX PCPN  30  29  96 E10       30.26F WCI  21
VIROQUA        CLOUDY    31  31 100 SE14G21   30.21F WCI  20
BOSCOBEL       CLOUDY    34  31  88 VRB5      30.24F WCI  30
PRAIRIE DU CHI CLOUDY    33  31  93 E12       30.22F FOG     WCI  24
PLATTEVILLE      N/A     33  33 100 E15       30.23F WCI  22
$$

WIZ056-057-062-063-064-067-068-230600-
SOUTH CENTRAL WISCONSIN

CITY           SKY/WX    TMP DP  RH WIND       PRES   REMARKS
REEDSBURG      CLOUDY    31  31 100 E7        30.26F WCI  24
BARABOO/DELLS  MIX PCPN  30  29  96 E8        30.28F WCI  23
LONE ROCK      FRZ RAIN  32  32 100 E14       30.26F VSB 1   WCI  22
MINERAL POINT  LGT RAIN  34  34 100 E12       30.23F WCI  25
MADISON        CLOUDY    31  30  96 E5        30.28F FOG     WCI  26
MIDDLETON      CLOUDY    32  31  97 E8        30.27F WCI  25
WATERTOWN      CLOUDY    33  31  90 E6        30.29F WCI  28
MONROE         CLOUDY    32  32 100 E6        30.26F WCI  26
JANESVILLE     CLOUDY    36  36 100 E7        30.28S WCI  30
$$

WIZ051-052-058>065-066-070>072-230600-
SOUTHEAST WISCONSIN

CITY           SKY/WX    TMP DP  RH WIND       PRES   REMARKS
MILWAUKEE      CLOUDY    36  31  82 E10       30.31F WCI  28
WAUKESHA       CLOUDY    32  28  86 E10       30.31F WCI  24
MILWAUKEE/TIMM CLOUDY    34  27  75 E7        30.33F WCI  28
RACINE         CLOUDY    36  31  82 SE9       30.32F WCI  29
BURLINGTON     CLOUDY    36  31  84 E7        30.29F WCI  30
KENOSHA        CLOUDY    37  31  78 SE10      30.30F WCI  30
FOND DU LAC    CLOUDY    35  26  69 SE8       30.30F WCI  29
SHEBOYGAN      CLOUDY    34  27  75 SE10      30.33F WCI  26
WEST BEND      CLOUDY    34  30  86 E12G17    30.31F WCI  25
JUNEAU         CLOUDY    32  28  84 E9        30.30F WCI  24
$$

LSZ147-162-230600-
LAKE SUPERIOR

STATION/POSITION TIME  TEMP    WIND        PRES    WAVE
                       AIR SEA DIR/SP/G            HT/PER
                 (UTC) (F)     (DEG/KT/KT) (MB)    (FT/S)
DEVILS ISLAND    0400   26      90/  9/  9 1029.3F
SAXON HARBOR     0440   24     320/  3/  3 1026.4F
$$

LMZ867-665-643>646-230600-
LAKE MICHIGAN

STATION/POSITION TIME  TEMP    WIND        PRES    WAVE
                       AIR SEA DIR/SP/G            HT/PER
                 (UTC) (F)     (DEG/KT/KT) (MB)    (FT/S)
NORTHPORT PIER   0440   33                 1029.1F
KEWAUNEE LAKESHO 0430   35     110/  9/ 12 1027.6F
SHEBOYGAN LAKESH 0400   35     110/ 16/ 18 1029.0F
PORT WASHINGTON  0430   36     100/ 12/ 14 1028.4F
MILWAUKEE LAKESH 0430   35      90/  8/  9   N/A
KENOSHA   LAKESH 0400   36     110/  9/ 12 1026.8
$$

TC  - TEMPERATURE IN CELSIUS
VSB - VISIBILITY IN STATUTE MILES
WCI - WIND CHILL INDEX
HX  - HEAT INDEX





USA.gov is the U.S. government's official web portal to all federal, state and local government web resources and services.